TimeEST,TemperatureF,Dew PointF,Humidity,Sea Level PressureIn,VisibilityMPH,Wind Direction,Wind SpeedMPH,Gust SpeedMPH,PrecipitationIn,Events,Conditions,WindDirDegrees,DateUTC
12:53 AM,60.1,45.0,57,30.06,10.0,SW,13.8,19.6,N/A,,Clear,230,2012-11-11 05:53:00
1:53 AM,57.9,44.1,60,30.06,10.0,SSW,10.4,-,N/A,,Clear,200,2012-11-11 06:53:00
2:53 AM,54.0,43.0,66,30.07,10.0,SSW,9.2,-,N/A,,Clear,200,2012-11-11 07:53:00
3:53 AM,52.0,43.0,71,30.09,10.0,SSW,6.9,-,N/A,,Clear,210,2012-11-11 08:53:00
4:53 AM,50.0,42.1,74,30.11,10.0,SSW,5.8,-,N/A,,Clear,200,2012-11-11 09:53:00
5:53 AM,48.0,42.1,80,30.12,10.0,SSW,6.9,-,N/A,,Clear,200,2012-11-11 10:53:00
6:53 AM,48.9,42.1,77,30.14,10.0,SSW,6.9,-,N/A,,Clear,210,2012-11-11 11:53:00
7:53 AM,51.1,42.1,71,30.13,10.0,South,8.1,-,N/A,,Clear,190,2012-11-11 12:53:00
8:53 AM,53.1,42.1,66,30.14,10.0,SSW,11.5,19.6,N/A,,Clear,210,2012-11-11 13:53:00
9:53 AM,57.9,43.0,58,30.14,10.0,SSW,12.7,19.6,N/A,,Clear,200,2012-11-11 14:53:00
11:53 AM,64.0,45.0,50,30.11,10.0,SSW,18.4,26.5,N/A,,Clear,200,2012-11-11 16:53:00
12:53 PM,66.9,46.9,49,30.06,10.0,South,17.3,29.9,N/A,,Clear,190,2012-11-11 17:53:00
1:53 PM,68.0,46.9,47,30.04,10.0,SSW,20.7,31.1,N/A,,Clear,200,2012-11-11 18:53:00
2:53 PM,66.9,46.0,47,30.03,10.0,South,17.3,33.4,N/A,,Clear,190,2012-11-11 19:53:00
3:53 PM,66.0,43.0,43,30.02,10.0,SSW,17.3,27.6,N/A,,Clear,200,2012-11-11 20:53:00
4:53 PM,64.0,41.0,43,30.03,10.0,South,17.3,24.2,N/A,,Clear,190,2012-11-11 21:53:00
5:53 PM,62.1,39.9,44,30.02,10.0,South,20.7,28.8,N/A,,Clear,190,2012-11-11 22:53:00
6:53 PM,61.0,39.0,44,30.02,10.0,South,13.8,19.6,N/A,,Clear,180,2012-11-11 23:53:00
7:53 PM,62.1,36.0,38,30.01,10.0,South,12.7,23.0,N/A,,Clear,180,2012-11-12 00:53:00
8:53 PM,61.0,36.0,39,29.99,10.0,South,15.0,26.5,N/A,,Clear,190,2012-11-12 01:53:00
9:53 PM,59.0,36.0,42,29.99,10.0,South,13.8,23.0,N/A,,Clear,190,2012-11-12 02:53:00
10:53 PM,59.0,37.0,44,29.98,10.0,South,11.5,-,N/A,,Clear,190,2012-11-12 03:53:00
11:53 PM,60.1,37.0,42,29.95,10.0,South,12.7,20.7,N/A,,Clear,190,2012-11-12 04:53:00